Powrót do katalogu

STARLINK-5246

AktywnyŁącznośćVLEO
NORAD 54198·PAYLOAD·🇺🇸 United States

Wystrzelony Oct 28, 2022 z Vandenberg Space Force Base

Loading…

Następne Przeloty (najbliższe 24 godziny)

TLE

ŚwieżeSource: CelesTrak SupGP

Epoka: Sep 14, 2026, 22:09 UTC

1 54198C 22141AT  26257.92340278 -.00015479  00000+0 -44275-3 0  2573
2 54198  53.1582 214.0221 0001304 100.2376  50.5669 15.35413923    10

Śledź STARLINK-5246 w czasie rzeczywistym z AllMySat

Download on the App Store